Flag for Germany Weather past 2 weeks in Oranienburg, Brandenburg, Germany

Now
54 °F

Passing clouds.


Feels Like: 54 °F
Forecast: 51 / 63 °F
Wind: 1 mph from South

Location: Berlin-Tegel

Current Time: Sep 4, 2015 at 8:25:34 AM

Latest Report: Sep 4, 2015 at 8:00 AM


Visibility: 16 mi

Pressure: 29.93 "Hg

Humidity: 94%

Dew point: 52 °F

Location of OranienburgLocation

Historic Weather in Oranienburg — Graph

°F

Oranienburg temperature yesterday

Maximum temperature yesterday: 66 °F (at 4:00 PM)
Minimum temperature yesterday: 52 °F (at 3:00 AM)
Average temperature yesterday: 60 °F

Past Weeks' High & Low Weather Summary

 TemperatureHumidityPressure
High94 °F (Aug 31, 5:00 PM)98% (Sep 4, 7:00 AM)30.32 "Hg (Sep 4, 7:00 AM)
Low50 °F (Sep 4, 5:00 AM)19% (Aug 22, 6:00 PM)29.71 "Hg (Aug 24, 11:00 PM)
Average68 °F60%30.01 "Hg
* Reported Aug 20 7:00 AM — Sep 4 7:00 AM, Oranienburg, Weather by CustomWeather, © 2015

Note: Actual official high and low records may vary slightly from our data, if they occured in-between our weather recording intervals... More about our weather records

Advertising

Oranienburg weather history for previous 24 hours

 ConditionsComfort  
Time TempWeatherWind HumidityBarometerVisibility
7:00 AM
Fri, Sep 4
51 °FFog.1 mph98%29.93 "Hg1 mi
5:00 AM50 °FFog.1 mph95%29.94 "Hg1 mi
4:00 AM53 °FFog.1 mph97%29.93 "Hg1 mi
3:00 AM55 °FFog.1 mph94%29.93 "Hg7 mi
2:00 AM56 °FPassing clouds.1 mph92%29.93 "Hg14 mi
1:00 AM57 °FFog.1 mph93%29.93 "Hg14 mi
11:00 PM
Thu, Sep 3
60 °FSprinkles. Overcast.1 mph87%29.93 "Hg8 mi
10:00 PM59 °FLight rain. Overcast.3 mph89%29.94 "Hg9 mi
9:00 PM62 °FOvercast.No wind69%29.94 "Hg22 mi
8:00 PM63 °FOvercast.2 mph67%29.93 "Hg22 mi
7:00 PM64 °FOvercast.2 mph63%29.92 "Hg22 mi
6:00 PM65 °FOvercast.2 mph62%29.92 "Hg22 mi
5:00 PM66 °FOvercast.5 mph61%29.93 "Hg22 mi
4:00 PM66 °FOvercast.3 mph65%29.93 "Hg22 mi
3:00 PM65 °FOvercast.3 mph67%29.93 "Hg22 mi
2:00 PM65 °FOvercast.3 mph70%29.94 "Hg17 mi
1:00 PM61 °FOvercast.2 mph78%29.95 "Hg17 mi
12:00 PM60 °FOvercast.3 mph77%29.96 "Hg19 mi
11:00 AM61 °FLight rain. Overcast.3 mph72%29.96 "Hg19 mi
10:00 AM62 °FLight rain. Overcast.5 mph63%29.96 "Hg17 mi
9:00 AM62 °FOvercast.5 mph64%29.96 "Hg19 mi
8:00 AM58 °FOvercast.1 mph78%29.96 "Hg17 mi
Weather by CustomWeather, © 2015

See weather overviewHow to use our weather pages